Elizabeth City, NC

2:52 AM EDT on April 22, 2018 (GMT -0400)
Elizabeth City Cgas-Regional

Weather History for KECG - June, 2013

Change the Weather History Date:

Sunday, June 23, 2013

  Actual Average Record
Temperature  
Mean Temperature 81 °F 77 °F  
Max Temperature 88 °F 86 °F 99 °F (2011)
Min Temperature 74 °F 68 °F 54 °F (1947)
Degree Days  
Heating Degree Days 0 0  
Month to date heating degree days 0 0  
Since 1 June heating degree days 0 0  
Since 1 July heating degree days 2879 3229  
Cooling Degree Days 16 12  
Month to date cooling degree days 238 225  
Year to date cooling degree days 444 389  
Since 1 June cooling degree days 238 225  
Growing Degree Days 30 (Base 50)    
Moisture  
Dew Point 72 °F    
Average Humidity 76    
Maximum Humidity 94    
Minimum Humidity 57    
Precipitation  
Precipitation 0.00 in 0.13 in 1.87 in (2001)
Month to date precipitation 3.76 3.51  
Year to date precipitation 14.43 20.68  
Snow  
Snow 0.00 in - 0.00 in (2002)
Month to date snowfall 0.0  
Since 1 July snowfall T  
Snow Depth 0.00 in    
Sea Level Pressure  
Sea Level Pressure 30.19 in    
Wind  
Wind Speed 9 mph (South)    
Max Wind Speed 20 mph    
Max Gust Speed 24 mph    
Visibility 10 miles    
Events      
T = Trace of Precipitation, MM = Missing Value Source: NWS Daily Summary

Daily Weather History Graph

Daily Weather History Graph

Search for Another Location

Airport or City:

Astronomy

Jun. 23, 2013 Rise Set
Actual Time 5:48 AM EDT 8:25 PM EDT
Civil Twilight 5:17 AM EDT 8:56 PM EDT
Nautical Twilight 4:39 AM EDT 9:34 PM EDT
Astronomical Twilight 3:57 AM EDT 10:16 PM EDT
Moon 8:38 PM EDT (6/23) 6:00 AM EDT (6/23)
Length of Visible Light 15h 38m
Length of Day
14h 37m
Full, 100% of the Moon is Illuminated
Jun 23
Full
Jun 30
Last Quarter
Jul 8
New
Jul 15
First Quarter
Jul 22
Full

Hourly Weather History & Observations

Time (EDT) Temp. Heat Index Dew Point Humidity Pressure Visibility Wind Dir Wind Speed Gust Speed Precip Events Conditions
12:54 AM 73.9 °F - 71.1 °F 91% 30.18 in 10.0 mi South 6.9 mph - N/A   Clear
1:54 AM 73.9 °F - 71.1 °F 91% 30.18 in 10.0 mi SSE 4.6 mph - N/A   Clear
2:54 AM 75.0 °F - 72.0 °F 90% 30.17 in 10.0 mi SSE 5.8 mph - N/A   Partly Cloudy
3:54 AM 75.0 °F - 73.0 °F 94% 30.17 in 10.0 mi South 5.8 mph - N/A   Clear
4:54 AM 75.0 °F - 73.0 °F 94% 30.18 in 10.0 mi South 6.9 mph - N/A   Clear
5:54 AM 75.0 °F - 73.0 °F 94% 30.19 in 10.0 mi South 5.8 mph - N/A   Clear
6:54 AM 75.9 °F - 73.0 °F 91% 30.20 in 10.0 mi South 5.8 mph - N/A   Clear
7:54 AM 78.1 °F - 73.9 °F 87% 30.21 in 10.0 mi South 8.1 mph - N/A   Partly Cloudy
8:42 AM 78.8 °F - 73.4 °F 83% 30.21 in 10.0 mi SSW 11.5 mph - N/A   Mostly Cloudy
8:54 AM 80.1 °F 84.2 °F 73.0 °F 79% 30.22 in 10.0 mi South 11.5 mph - N/A   Mostly Cloudy
9:31 AM 80.6 °F 84.6 °F 71.6 °F 74% 30.21 in 10.0 mi SSW 9.2 mph - N/A   Scattered Clouds
9:54 AM 80.1 °F 83.8 °F 72.0 °F 76% 30.22 in 10.0 mi SW 11.5 mph - N/A   Partly Cloudy
10:54 AM 82.9 °F 87.5 °F 71.1 °F 67% 30.22 in 10.0 mi SSW 13.8 mph - N/A   Partly Cloudy
11:54 AM 84.0 °F 89.6 °F 72.0 °F 67% 30.22 in 10.0 mi SSW 11.5 mph - N/A   Clear
12:54 PM 86.0 °F 91.5 °F 71.1 °F 61% 30.20 in 10.0 mi South 10.4 mph - N/A   Partly Cloudy
1:54 PM 87.1 °F 93.6 °F 72.0 °F 61% 30.19 in 10.0 mi South 11.5 mph - N/A   Partly Cloudy
2:54 PM 86.0 °F 90.7 °F 70.0 °F 59% 30.18 in 10.0 mi South 10.4 mph - N/A   Partly Cloudy
3:54 PM 87.1 °F 93.6 °F 72.0 °F 61% 30.16 in 10.0 mi SE 9.2 mph - N/A   Partly Cloudy
4:54 PM 84.0 °F 90.2 °F 73.0 °F 69% 30.15 in 10.0 mi South 9.2 mph - N/A   Scattered Clouds
5:54 PM 81.0 °F 85.8 °F 73.0 °F 77% 30.15 in 10.0 mi South 11.5 mph - N/A   Partly Cloudy
6:54 PM 79.0 °F - 72.0 °F 79% 30.16 in 10.0 mi SSW 13.8 mph - N/A   Scattered Clouds
7:54 PM 75.9 °F - 70.0 °F 82% 30.17 in 10.0 mi SSW 10.4 mph - N/A   Clear
8:54 PM 75.9 °F - 70.0 °F 82% 30.17 in 10.0 mi SSW 9.2 mph - N/A   Clear
9:54 PM 73.9 °F - 70.0 °F 87% 30.18 in 10.0 mi SSW 5.8 mph - N/A   Clear
10:54 PM 75.0 °F - 71.1 °F 87% 30.20 in 10.0 mi SSW 6.9 mph - N/A   Scattered Clouds
11:07 PM 75.2 °F - 71.6 °F 89% 30.20 in 10.0 mi SSW 6.9 mph - N/A   Mostly Cloudy
11:42 PM 75.2 °F - 71.6 °F 89% 30.21 in 10.0 mi SW 6.9 mph - N/A   Overcast
11:54 PM 75.0 °F - 71.1 °F 87% 30.21 in 10.0 mi SW 6.9 mph - N/A   Overcast